Location: Medlow Airstrip Trail, Medlow Bath NSW 2780, Australia
(33.6682°S, 150.3233°E)
Time: 13:25:25
(UTC+11:00)

Explorer 11/Cluster Stage 4 - Pass Details

Date: 02 October 2019
Orbit: 467 x 1259 km, 28.8° (Epoch: 15 October)

Event Time Altitude Azimuth Distance (km) Brightness Sun altitude
Rises 07:48:40 0° 278° (W) 2,524 8.7 26.7°
Reaches altitude 10° 07:50:50 10° 286° (WNW) 1,684 7.9 27.1°
Maximum altitude 07:54:24 39° 356° (N) 812 7.1 27.8°
Drops below altitude 10° 07:58:31 10° 64° (ENE) 1,941 10.3 28.6°
Sets 08:01:10 0° 72° (ENE) 2,971 10.8 29.2°
